EW6618 Weather Reports


time (UTC)temp
C
wind
direction
speed
KPH
gust
KPH
rain 1hr
cm
rain 24hr
cm
rain mn
cm
humidity
%
barometer
mb
20260507123126 14 226 1.6 4.8 0.00 0.00 0.00 91 1016.2
20260507122147 14 247 0.0 0.0 0.00 0.00 0.00 91 1016.2
20260507121126 14 287 0.0 4.8 0.00 0.00 0.00 91 1016.3
20260507120121 14 264 0.0 0.0 0.00 0.00 0.00 91 1016.2
20260507115132 14 264 0.0 0.0 0.00 0.00 0.00 91 1016.0
20260507114118 14 248 0.0 4.8 0.00 0.00 0.00 91 1016.1
20260507113112 14 255 0.0 1.6 0.00 0.00 0.00 90 1016.0
20260507112127 14 229 1.6 4.8 0.00 0.00 0.00 91 1016.1
20260507111134 14 184 0.0 3.2 0.00 0.00 0.00 91 1016.3
20260507110144 14 102 0.0 3.2 0.00 0.00 0.00 91 1016.2
20260507105118 14 155 0.0 3.2 0.00 0.00 0.00 90 1016.4
20260507104130 15 187 0.0 4.8 0.00 0.00 0.00 91 1016.5
20260507103058 15 199 0.0 4.8 0.00 0.00 0.00 91 1016.6
20260507100930 15 141 0.0 1.6 0.00 0.00 0.00 91 1016.7
20260507095857 15 247 0.0 0.0 0.00 0.00 0.00 90 1016.6
20260507094907 15 247 0.0 0.0 0.00 0.00 0.00 90 1016.7
20260507093932 15 246 0.0 0.0 0.00 0.00 0.00 90 1016.7
20260507092943 15 246 1.6 4.8 0.00 0.00 0.00 90 1016.9
20260507091947 15 247 3.2 6.4 0.00 0.00 0.00 90 1017.0
20260507090923 15 94 3.2 8.0 0.00 0.00 0.00 90 1017.1
20260507085942 15 211 4.8 8.0 0.00 0.00 0.00 90 1017.1
20260507084924 15 259 4.8 9.7 0.00 0.00 0.00 91 1017.1
20260507083921 15 260 1.6 9.7 0.00 0.00 0.00 91 1017.4
20260507082917 15 268 1.6 4.8 0.00 0.00 0.00 91 1017.5
20260507081859 15 247 0.0 4.8 0.00 0.00 0.00 91 1017.5
20260507080847 15 203 1.6 6.4 0.00 0.00 0.00 91 1017.5
20260507075859 15 237 1.6 6.4 0.00 0.00 0.00 91 1017.5
20260507074900 15 300 1.6 6.4 0.00 0.00 0.00 91 1017.6
20260507073859 15 269 0.0 0.0 0.00 0.00 0.00 91 1017.6
20260507072847 15 295 1.6 4.8 0.00 0.00 0.00 91 1017.6
20260507071824 15 241 1.6 4.8 0.00 0.00 0.00 91 1017.6
20260507070843 15 238 1.6 6.4 0.00 0.00 0.00 91 1017.6
20260507065825 15 281 1.6 6.4 0.00 0.00 0.00 91 1017.7
20260507064839 15 295 3.2 6.4 0.00 0.00 0.00 91 1017.8
20260507062735 15 240 3.2 6.4 0.00 0.00 0.00 91 1017.8
20260507061757 15 248 4.8 9.7 0.00 0.00 0.00 91 1017.8
20260507060801 15 250 6.4 9.7 0.00 0.00 0.00 90 1017.8
20260507055813 15 270 6.4 11.3 0.00 0.00 0.00 90 1017.8
20260507054804 15 274 8.0 12.9 0.00 0.00 0.00 90 1017.9
20260507050406 15 250 4.8 9.7 0.00 0.00 0.00 90 1017.7
20260507045418 15 254 6.4 12.9 0.00 0.00 0.00 90 1017.8
20260507043237 15 294 8.0 14.5 0.00 0.00 0.00 89 1017.7
20260507042225 15 247 11.3 17.7 0.00 0.00 0.00 89 1017.7
20260507041221 15 306 12.9 17.7 0.00 0.00 0.00 89 1017.7
20260507040152 16 238 12.9 20.9 0.00 0.00 0.00 88 1017.6
20260507034015 16 336 12.9 19.3 0.00 0.00 0.00 88 1017.3
20260507033011 16 304 14.5 20.9 0.00 0.00 0.00 88 1017.3
20260507032001 16 281 14.5 20.9 0.00 0.00 0.00 87 1017.3
20260507031002 16 293 14.5 22.5 0.00 0.00 0.00 87 1017.1
20260507025949 16 285 12.9 24.1 0.00 0.00 0.00 87 1017.1
20260507025008 16 283 14.5 24.1 0.00 0.00 0.00 86 1017.1
20260507022847 16 289 14.5 24.1 0.00 0.00 0.00 84 1016.8
20260507021849 16 271 12.9 19.3 0.00 0.00 0.00 83 1016.8
20260507020836 17 242 11.3 19.3 0.00 0.00 0.00 83 1016.6
20260507012432 17 342 14.5 24.1 0.00 0.00 0.00 82 1016.6
20260507011440 17 219 14.5 20.9 0.00 0.00 0.00 82 1016.7
20260507010434 17 269 14.5 20.9 0.00 0.00 0.00 82 1016.6
20260507005404 17 259 14.5 22.5 0.00 0.00 0.00 81 1016.5
20260507004409 17 232 14.5 22.5 0.00 0.00 0.00 81 1016.5
20260507002253 17 274 14.5 24.1 0.00 0.00 0.00 80 1016.7
20260507001254 17 293 14.5 24.1 0.00 0.00 0.00 79 1016.7
20260506234020 18 252 12.9 20.9 0.00 0.00 0.00 78 1016.6
20260506233030 18 274 12.9 20.9 0.00 0.00 0.00 78 1016.6
20260506232005 18 295 12.9 20.9 0.00 0.00 0.00 77 1016.6
20260506230957 19 304 12.9 19.3 0.00 0.00 0.00 76 1016.7
20260506225950 19 307 12.9 20.9 0.00 0.00 0.00 76 1016.8
20260506224936 19 257 12.9 20.9 0.00 0.00 0.00 75 1016.9
20260506221658 19 230 11.3 17.7 0.00 0.00 0.00 75 1017.4
20260506220702 19 247 11.3 17.7 0.00 0.00 0.00 76 1017.6
20260506215725 19 250 11.3 17.7 0.00 0.00 0.00 76 1017.6
20260506214659 19 253 11.3 17.7 0.00 0.00 0.00 75 1017.7
20260506213625 19 308 11.3 16.1 0.00 0.00 0.00 74 1017.9
20260506212612 20 224 9.7 17.7 0.00 0.00 0.00 74 1017.9
20260506211538 19 354 9.7 17.7 0.00 0.00 0.00 74 1018.0
20260506210547 19 356 9.7 17.7 0.00 0.00 0.00 75 1018.0
20260506205552 19 259 9.7 16.1 0.00 0.00 0.00 73 1018.1
20260506204559 19 245 9.7 16.1 0.00 0.00 0.00 74 1018.2
20260506203537 19 241 11.3 16.1 0.00 0.00 0.00 73 1018.2
20260506202534 19 299 9.7 16.1 0.00 0.00 0.00 74 1018.2
20260506201501 19 321 9.7 14.5 0.00 0.00 0.00 73 1018.4
20260506200441 19 238 9.7 17.7 0.00 0.00 0.00 73 1018.5
20260506195424 19 207 9.7 17.7 0.00 0.00 0.00 74 1018.5
20260506194359 20 227 9.7 16.1 0.00 0.00 0.00 73 1018.5
20260506193423 20 274 9.7 16.1 0.00 0.00 0.00 73 1018.7
20260506192412 20 318 9.7 14.5 0.00 0.00 0.00 72 1018.7
20260506191411 19 248 9.7 14.5 0.00 0.00 0.00 73 1018.9
20260506190435 19 219 9.7 16.1 0.00 0.00 0.00 72 1018.9
20260506185402 19 135 9.7 16.1 0.00 0.00 0.00 75 1018.9
20260506184422 19 9 9.7 14.5 0.00 0.00 0.00 75 1018.9
20260506182309 19 262 8.0 14.5 0.00 0.00 0.00 75 1019.0
20260506181334 18 298 8.0 12.9 0.00 0.00 0.00 75 1019.1
20260506180336 18 235 6.4 12.9 0.00 0.00 0.00 75 1019.1
20260506174149 18 218 6.4 11.3 0.00 0.00 0.00 76 1019.1
20260506173204 18 239 6.4 11.3 0.00 0.00 0.00 77 1019.0
20260506172210 17 293 6.4 11.3 0.00 0.00 0.00 77 1019.0
20260506171207 17 321 6.4 11.3 0.00 0.00 0.00 77 1018.9
20260506170206 17 259 6.4 11.3 0.00 0.00 0.00 76 1018.9
20260506165226 17 331 4.8 9.7 0.00 0.00 0.00 75 1018.8
20260506164242 17 30 4.8 8.0 0.00 0.00 0.00 77 1018.8
20260506162208 18 241 4.8 8.0 0.00 0.00 0.00 76 1018.8
20260506161134 18 258 1.6 6.4 0.00 0.00 0.00 75 1018.9
20260506160157 18 262 1.6 6.4 0.00 0.00 0.00 75 1018.8
20260506155210 18 352 1.6 4.8 0.00 0.00 0.00 76 1018.8
20260506154224 18 179 1.6 3.2 0.00 0.00 0.00 76 1018.8
20260506153236 17 100 0.0 1.6 0.00 0.00 0.00 77 1018.8
20260506152248 17 126 0.0 6.4 0.00 0.00 0.00 78 1018.7
20260506151241 17 239 0.0 6.4 0.00 0.00 0.00 80 1018.9
20260506150227 16 98 0.0 4.8 0.00 0.00 0.00 82 1018.9
20260506145227 16 67 1.6 6.4 0.00 0.00 0.00 83 1018.9
20260506144219 15 70 1.6 4.8 0.00 0.00 0.00 84 1018.8
20260506143205 15 92 0.0 3.2 0.00 0.00 0.00 85 1018.7
20260506142142 14 84 1.6 4.8 0.00 0.00 0.00 87 1018.7
20260506141144 14 80 1.6 4.8 0.00 0.00 0.00 88 1018.6
20260506140159 13 78 1.6 4.8 0.00 0.00 0.00 88 1018.5
20260506135152 13 70 0.0 3.2 0.00 0.00 0.00 88 1018.5
20260506133047 13 79 1.6 4.8 0.00 0.00 0.00 88 1018.3
20260506130916 13 72 1.6 3.2 0.00 0.00 0.00 88 1018.3
20260506125855 13 73 0.0 3.2 0.00 0.00 0.00 88 1018.0
20260506124825 13 84 0.0 0.0 0.00 0.00 0.00 87 1017.9